Location: Campestrin
(46.4667°N, 11.7167°E)
Time: 04:09:23
(UTC+00:00)

USA 229 - Pass Details

Date: 18 April 2021
Orbit: 958 x 1254 km, 63.4° (Epoch: 23 April)

Event Time Altitude Azimuth Distance (km) Brightness Sun altitude
Rises 21:34:29 0° 320° (NW) 3,931 7.8 -28.4°
Reaches altitude 10° 21:37:10 10° 325° (NW) 3,013 7.0 -28.6°
Maximum altitude 21:44:18 56° 43° (NE) 1,385 4.3 -29.1°
Enters shadow 21:46:15 45° 90° (E) 1,585 4.3 -29.2°
